Change the Weather History Date:

Wednesday, January 30, 2013

  Actual Average Record
Temperature  
Mean Temperature 4 °F 14 °F  
Max Temperature 16 °F 24 °F 49 °F (1992)
Min Temperature -8 °F 4 °F -25 °F (2004)
Degree Days  
Heating Degree Days 61 51  
Month to date heating degree days 1501 1556  
Since 1 July heating degree days 4876 4895  
Cooling Degree Days 0 0  
Month to date cooling degree days 0 0  
Year to date cooling degree days 0 0  
Moisture  
Dew Point -1 °F    
Average Humidity 80    
Maximum Humidity 88    
Minimum Humidity 71    
Precipitation  
Precipitation 0.01 in 0.01 in 0.11 in (2011)
Month to date precipitation 0.80 0.42  
Year to date precipitation 0.80 0.42  
Snow  
Snow 0.00 in - - ()
Month to date snowfall 2.7  
Since 1 July snowfall 11.7  
Snow Depth 6.00 in    
Sea Level Pressure  
Sea Level Pressure 29.98 in    
Wind  
Wind Speed 20 mph (NNW)    
Max Wind Speed 28 mph    
Max Gust Speed 32 mph    
T = Trace of Precipitation, MM = Missing Value Source: NWS Daily Summary

Daily Weather History Graph

Daily Weather History Graph

Search for Another Location

Airport or City:

Trip Planner

Search our weather history database for the weather conditions in past years. The results will help you decide how hot, cold, wet, or windy it might be!

Date:

Astronomy

Jan. 30, 2013 Rise Set
Actual Time 7:51 AM CST 5:31 PM CST
Civil Twilight 7:19 AM CST 6:03 PM CST
Nautical Twilight 6:43 AM CST 6:39 PM CST
Astronomical Twilight 6:09 AM CST 7:14 PM CST
Moon 9:47 PM CST (1/30) 9:06 AM CST (1/30)
Length of Visible Light 10h 44m
Length of Day
9h 40m
Waning Gibbous, 87% of the Moon is Illuminated
Jan 30
Waning Gibbous
Feb 3
Last Quarter
Feb 10
New
Feb 17
First Quarter
Feb 25
Full

Hourly Weather History & Observations

Time (CST) Temp. Windchill Dew Point Humidity Pressure Visibility Wind Dir Wind Speed Gust Speed Precip Events Conditions
12:56 AM 16.0 °F 0.6 °F 12.9 °F 88% 29.97 in - North 16.1 mph - N/A   Unknown
1:56 AM 15.1 °F -3.7 °F 10.9 °F 84% 29.96 in - North 24.2 mph 28.8 mph N/A   Unknown
2:56 AM 15.1 °F -1.1 °F 10.0 °F 80% 29.96 in - North 17.3 mph - N/A   Unknown
3:56 AM 15.1 °F -1.6 °F 10.9 °F 84% 29.96 in - North 18.4 mph - N/A   Unknown
4:56 AM 12.0 °F -6.0 °F 8.1 °F 84% 29.96 in - North 19.6 mph - N/A   Unknown
5:56 AM 10.9 °F -7.0 °F 6.1 °F 81% 29.96 in - North 18.4 mph - N/A   Unknown
6:56 AM 10.9 °F -5.4 °F 7.0 °F 84% 29.97 in - North 15.0 mph - N/A   Unknown
7:56 AM 10.9 °F -7.5 °F 6.1 °F 81% 29.96 in - North 19.6 mph - N/A   Unknown
8:56 AM 8.1 °F -12.2 °F 3.9 °F 83% 29.97 in - NNW 21.9 mph - N/A   Unknown
9:56 AM 7.0 °F -14.5 °F 1.9 °F 80% 29.98 in - NNW 24.2 mph - N/A   Unknown
10:56 AM 7.0 °F -14.0 °F 1.0 °F 77% 29.98 in - NNW 23.0 mph 29.9 mph N/A   Unknown
11:56 AM 7.0 °F -13.6 °F 1.9 °F 80% 29.97 in - NNW 21.9 mph - N/A   Unknown
12:56 PM 6.1 °F -15.2 °F -0.0 °F 76% 29.96 in - NNW 23.0 mph - N/A   Unknown
1:56 PM 5.0 °F -16.7 °F -0.9 °F 76% 29.96 in - NNW 23.0 mph - N/A   Unknown
2:56 PM 5.0 °F -15.2 °F -0.9 °F 76% 29.96 in - NNW 19.6 mph - N/A   Unknown
3:56 PM 3.0 °F -18.3 °F -2.9 °F 76% 29.96 in - NNW 20.7 mph - N/A   Unknown
4:56 PM -0.0 °F -22.4 °F -6.0 °F 76% 29.97 in - NNW 20.7 mph - N/A   Unknown
5:56 PM -2.9 °F -23.1 °F -8.0 °F 79% 29.99 in - NW 15.0 mph - N/A   Unknown
6:56 PM -2.9 °F -24.4 °F -9.0 °F 75% 30.00 in - NW 17.3 mph - 0.01 in   Unknown
7:56 PM -5.1 °F -28.4 °F -11.0 °F 76% 30.01 in - NNW 19.6 mph - N/A   Unknown
8:56 PM -7.1 °F -30.4 °F -14.1 °F 72% 30.02 in - NNW 18.4 mph - N/A   Unknown
9:56 PM -8.0 °F -34.9 °F -14.1 °F 75% 30.04 in - NNW 25.3 mph - N/A   Unknown
10:56 PM -8.0 °F -33.9 °F -14.1 °F 75% 30.05 in - NNW 23.0 mph - N/A   Unknown
11:56 PM -8.0 °F -33.3 °F -14.1 °F 75% 30.06 in - NNW 21.9 mph - N/A   Unknown